Weather in Platonovo

Russia / Sverdlovsk Oblast     57°28′28″N   58°09′49″E
temp.,
°C
wind,
m/s
gust,
m/s
humid.,
%
clouds,
%
prec.,
mm/h
press.,
hPa
HPBL,
m
24 september, fri
fri2423:00+3se22835 0.0 102818
02:00+2ese218544 0.0 102713
05:00+2ese118691 0.0 102711
08:00+3se1181100 0.0 102727
11:00+9s2461100 0.0 1026287
14:00+13s2450100 0.0 1025704
17:00+12sse2358100 0.0 1024397
20:00+9ese227297 0.0 102442
25 september, sat
sat2523:00+8ese2272100 0.0 102429
02:00+6ese2381100 0.0 102365
05:00+4e268253 0.0 102394
08:00+5e3876100 0.0 1021172
11:00+10ese4952100 0.0 1019500
14:00+12ese494866 0.0 1018741
17:00+13ese4946100 0.0 1018761
20:00+11ese51349100 0.0 1018665
26 september, sun
sun2623:00+9se41251100 0.0 1018479
02:00+8se41058100 0.1 1018383
05:00+8ese41259100 0.1 1018561
08:00+7ese51474100 0.1 1018649
11:00+8ese61565100 0.1 1018825
14:00+7ese61381100 0.6 10191089
17:00+6ese61488100 2.0 10191150
20:00+6ese61482100 0.9 10201061
27 september, mon
mon2723:00+4ese61267100 0.9 1021929
02:00+4e61359100 0.0 1021787
05:00+3e61364100 0.0 1021755
08:00+2e61471100 0.0 1022826
11:00+4e71562100 0.0 1023858
14:00+7e611475 0.0 10231218
17:00+7ene612535 0.0 10241264
20:00+3ene512645 0.0 10261071
28 september, tue
tue2823:00+2ene512735 0.0 1027689
02:000ne411855 0.0 1028473
05:00−2ne310925 0.0 1028370
08:00−2ne399091 0.0 1029405
11:00+2ene4767100 0.0 10281079
14:00+3ne4659100 0.0 10281224
17:00+3ne366099 0.0 10281273
20:00+2ne2767100 0.0 1028509